Location: Beadle
(51.4667°N, 109.0000°W)
Time: 10:39:37
(UTC+00:00)

deb Explorer IX - Pass Details

Date: 28 May 2022
Orbit: 535 x 1068 km, 38.8° (Epoch: 04 July)

Event Time Altitude Azimuth Distance (km) Brightness Sun altitude
Rises 17:47:51 0° 219° (SW) 3,826 ? 55.8°
Reaches altitude 10° 17:51:27 10° 203° (SSW) 2,832 ? 56.1°
Maximum altitude 17:56:04 19° 161° (SSE) 2,152 ? 56.5°
Drops below altitude 10° 18:00:25 10° 118° (ESE) 2,644 ? 56.9°
Sets 18:03:37 0° 102° (ESE) 3,491 ? 57.2°
